| time (UTC) | temp F | wind direction | speed knots | gust knots | rain 1hr in | rain 24hr in | rain mn in | humidity % | barometer mb |
| 20260831053026 | 74 | 150 | 0.0 | 4.3 | 0.00 | 0.00 | 0.00 | 57 | 1028.5 |
| 20260831051537 | 74 | 88 | 0.0 | 1.7 | 0.00 | 0.00 | 0.00 | 52 | 1028.4 |
| 20260831050024 | 74 | 66 | 0.0 | 2.6 | 0.00 | 0.00 | 0.00 | 54 | 1028.5 |
| 20260831044518 | 74 | 15 | 0.0 | 2.6 | 0.00 | 0.00 | 0.00 | 55 | 1028.5 |
| 20260831043141 | 73 | 335 | 0.0 | 3.5 | 0.00 | 0.00 | 0.00 | 59 | 1028.7 |
| 20260831041555 | 74 | 317 | 0.9 | 3.5 | 0.00 | 0.00 | 0.00 | 59 | 1028.8 |
| 20260831040055 | 74 | 306 | 0.9 | 2.6 | 0.00 | 0.00 | 0.00 | 60 | 1028.9 |
| 20260831034549 | 74 | 22 | 0.0 | 3.5 | 0.00 | 0.00 | 0.00 | 59 | 1028.9 |
| 20260831033049 | 75 | 138 | 0.0 | 2.6 | 0.00 | 0.00 | 0.00 | 59 | 1028.9 |
| 20260831031546 | 75 | 211 | 0.0 | 3.5 | 0.00 | 0.00 | 0.00 | 59 | 1029.0 |
| 20260831030039 | 75 | 360 | 0.0 | 2.6 | 0.00 | 0.00 | 0.00 | 60 | 1029.3 |
| 20260831024537 | 74 | 15 | 0.0 | 2.6 | 0.00 | 0.00 | 0.00 | 57 | 1029.3 |
| 20260831023039 | 75 | 42 | 0.0 | 2.6 | 0.00 | 0.00 | 0.00 | 55 | 1029.3 |
| 20260831021548 | 75 | 355 | 0.0 | 1.7 | 0.00 | 0.00 | 0.00 | 53 | 1029.8 |
| 20260831020027 | 74 | 5 | 0.0 | 1.7 | 0.00 | 0.00 | 0.00 | 52 | 1030.0 |
| 20260831014523 | 73 | 341 | 0.0 | 1.7 | 0.00 | 0.00 | 0.00 | 53 | 1030.3 |
| 20260831013020 | 73 | 95 | 0.0 | 1.7 | 0.00 | 0.00 | 0.00 | 52 | 1030.6 |
| 20260831011517 | 72 | 155 | 0.0 | 2.6 | 0.00 | 0.00 | 0.00 | 55 | 1030.6 |
| 20260830181508 | 50 | 250 | 0.0 | 0.0 | 0.00 | 0.00 | 0.00 | 94 | 1029.7 |
| 20260830180007 | 50 | 252 | 0.0 | 0.0 | 0.00 | 0.00 | 0.00 | 95 | 1029.7 |
| 20260830174512 | 50 | 300 | 0.0 | 0.0 | 0.00 | 0.00 | 0.00 | 95 | 1029.7 |
| 20260830173003 | 50 | 300 | 0.0 | 0.0 | 0.00 | 0.00 | 0.00 | 94 | 1029.9 |
| 20260830171605 | 50 | 300 | 0.0 | 0.0 | 0.00 | 0.00 | 0.00 | 94 | 1030.0 |
| 20260830170059 | 50 | 300 | 0.0 | 0.0 | 0.00 | 0.00 | 0.00 | 94 | 1030.1 |
| 20260830164557 | 51 | 300 | 0.0 | 0.0 | 0.00 | 0.00 | 0.00 | 94 | 1030.1 |
| 20260830163103 | 51 | 300 | 0.0 | 0.0 | 0.00 | 0.00 | 0.00 | 94 | 1030.4 |
| 20260830161616 | 51 | 300 | 0.0 | 0.0 | 0.00 | 0.00 | 0.00 | 94 | 1030.3 |
| 20260830160052 | 51 | 300 | 0.0 | 0.0 | 0.00 | 0.00 | 0.00 | 93 | 1030.4 |
| 20260830154552 | 52 | 300 | 0.0 | 0.0 | 0.00 | 0.00 | 0.00 | 93 | 1030.4 |
| 20260830153051 | 51 | 300 | 0.0 | 0.0 | 0.00 | 0.00 | 0.00 | 93 | 1030.6 |
| 20260830151549 | 52 | 300 | 0.0 | 0.0 | 0.00 | 0.00 | 0.00 | 93 | 1030.5 |
| 20260830150050 | 52 | 300 | 0.0 | 0.0 | 0.00 | 0.00 | 0.00 | 93 | 1030.5 |
| 20260830144547 | 52 | 300 | 0.0 | 0.0 | 0.00 | 0.00 | 0.00 | 93 | 1030.6 |
| 20260830143049 | 52 | 300 | 0.0 | 0.0 | 0.00 | 0.00 | 0.00 | 93 | 1030.5 |
| 20260830141544 | 52 | 300 | 0.0 | 0.0 | 0.00 | 0.00 | 0.00 | 92 | 1030.6 |
| 20260830140040 | 53 | 300 | 0.0 | 0.0 | 0.00 | 0.00 | 0.00 | 92 | 1030.5 |
| 20260830134548 | 53 | 300 | 0.0 | 0.0 | 0.00 | 0.00 | 0.00 | 92 | 1030.6 |
| 20260830133040 | 53 | 300 | 0.0 | 0.0 | 0.00 | 0.00 | 0.00 | 91 | 1030.6 |
| 20260830131552 | 53 | 300 | 0.0 | 0.0 | 0.00 | 0.00 | 0.00 | 91 | 1030.7 |
| 20260830130038 | 53 | 300 | 0.0 | 0.0 | 0.00 | 0.00 | 0.00 | 91 | 1030.7 |
| 20260830124539 | 54 | 323 | 0.0 | 0.0 | 0.00 | 0.00 | 0.00 | 91 | 1030.9 |
| 20260830123038 | 54 | 323 | 0.0 | 0.0 | 0.00 | 0.00 | 0.00 | 91 | 1030.9 |
| 20260830121537 | 54 | 329 | 0.0 | 0.0 | 0.00 | 0.00 | 0.00 | 91 | 1031.0 |
| 20260830120037 | 53 | 329 | 0.0 | 0.0 | 0.00 | 0.00 | 0.00 | 90 | 1030.6 |
| 20260830114546 | 53 | 329 | 0.0 | 0.0 | 0.00 | 0.00 | 0.00 | 89 | 1030.4 |
| 20260830113040 | 54 | 329 | 0.0 | 0.0 | 0.00 | 0.00 | 0.00 | 88 | 1030.3 |
| 20260830111535 | 54 | 329 | 0.0 | 0.0 | 0.00 | 0.00 | 0.00 | 88 | 1030.3 |
| 20260830110041 | 55 | 329 | 0.0 | 0.0 | 0.00 | 0.00 | 0.00 | 87 | 1030.3 |
| 20260830104535 | 55 | 329 | 0.0 | 0.0 | 0.00 | 0.00 | 0.00 | 86 | 1030.4 |
| 20260830103034 | 56 | 329 | 0.0 | 0.0 | 0.00 | 0.00 | 0.00 | 86 | 1030.2 |
| 20260830101533 | 56 | 329 | 0.0 | 0.0 | 0.00 | 0.00 | 0.00 | 86 | 1030.1 |
| 20260830100033 | 57 | 329 | 0.0 | 0.0 | 0.00 | 0.00 | 0.00 | 85 | 1029.8 |
| 20260830094533 | 57 | 329 | 0.0 | 0.0 | 0.00 | 0.00 | 0.00 | 83 | 1029.8 |
| 20260830093037 | 58 | 329 | 0.0 | 0.0 | 0.00 | 0.00 | 0.00 | 81 | 1029.7 |
| 20260830091531 | 58 | 329 | 0.0 | 0.0 | 0.00 | 0.00 | 0.00 | 81 | 1029.7 |
| 20260830090031 | 59 | 329 | 0.0 | 0.0 | 0.00 | 0.00 | 0.00 | 78 | 1029.6 |
| 20260830084530 | 59 | 329 | 0.0 | 0.0 | 0.00 | 0.00 | 0.00 | 77 | 1029.6 |
| 20260830083031 | 60 | 329 | 0.0 | 0.0 | 0.00 | 0.00 | 0.00 | 74 | 1029.3 |
| 20260830081534 | 61 | 329 | 0.0 | 0.0 | 0.00 | 0.00 | 0.00 | 72 | 1029.1 |
| 20260830080029 | 62 | 329 | 0.0 | 0.0 | 0.00 | 0.00 | 0.00 | 71 | 1028.9 |
| 20260830074547 | 63 | 329 | 0.0 | 0.0 | 0.00 | 0.00 | 0.00 | 70 | 1028.9 |
| 20260830073029 | 64 | 313 | 0.0 | 0.0 | 0.00 | 0.00 | 0.00 | 67 | 1028.9 |
| 20260830071527 | 66 | 313 | 0.0 | 0.0 | 0.00 | 0.00 | 0.00 | 66 | 1028.8 |
| 20260830070026 | 67 | 313 | 0.0 | 0.0 | 0.00 | 0.00 | 0.00 | 65 | 1028.7 |
| 20260830064530 | 68 | 313 | 0.0 | 1.7 | 0.00 | 0.00 | 0.00 | 63 | 1028.4 |
| 20260830063026 | 69 | 346 | 0.0 | 0.9 | 0.00 | 0.00 | 0.00 | 61 | 1028.8 |
| 20260830061527 | 70 | 311 | 0.0 | 1.7 | 0.00 | 0.00 | 0.00 | 60 | 1028.6 |
| 20260830060020 | 70 | 319 | 0.0 | 1.7 | 0.00 | 0.00 | 0.00 | 54 | 1028.8 |
| 20260830054525 | 71 | 333 | 0.0 | 0.9 | 0.00 | 0.00 | 0.00 | 58 | 1028.8 |